Find Starlink 2330

NORAD ID: 47874 Int'l Des: 2021-021 Owner: SPXS Country: US Constellation: starlink operational
LEOCIRCULARSTARLINK_TYPE

リアルタイム位置

3D地球を読み込み中...

Starlink 2330について

説明を読み込み中...

次回通過

Passes for default location (London). Set your location on the main map for personalized predictions.

高度履歴

Loading altitude history...

軌道要素

1 47874U 21021Q 26124.50534426 .00053448 00000-0 16176-2 0 9997
2 47874 53.1445 316.9377 0001759 226.7059 133.3797 15.33690724285517
Epoch: May 4, 2026 • Age: 9 hours

現在のステータス

高度 472.2 km
速度 7.63 km/s
衛星直下点 -25.09°S, 111.33°E
打ち上げ日 Mar 14, 2021
運用期間 5.1 years
タイプ internet

技術仕様

分類 Payload
質量 260.00 kg
乾燥質量 248.00 kg
総質量 260.00 kg
長さ 0.20 m
直径 2.80 m
スパン 9.00 m
形状 Box + pan
製造者 SPXS
バスタイプ Starlink
フェーズステータス In Orbit
所有者/国 SPXS/US

Most Searched